EXS39T EKCH-EGKK

Flight info

Callsign EXS39T
Flight time 0h 51m
Altitude 38000
Route LANGO2C LANGO RAXLU GALSO Q63 ARREK Y4 TEBRA TEBRA2G
Aircraft B738/M-SDE2E3FGHIRWXY/LB1

Departure

Time 2026-05-04 20:44
Airport Copenhagen Kastrup Airport (EKCH)

Arrival

Time 2026-05-04 21:35
Airport London Gatwick Airport (EGKK)
Time Latitude Longitude Altitude Speed Heading
2026-05-04 20:25 55.62494 12.64901 19 ft 0 kts 89°
2026-05-04 20:32 55.62494 12.64891 19 ft 2 kts 90°
2026-05-04 20:32 55.62496 12.64862 19 ft 2 kts 100°
2026-05-04 20:33 55.62500 12.64834 22 ft 2 kts 112°
2026-05-04 20:33 55.62507 12.64808 20 ft 2 kts 130°
2026-05-04 20:33 55.62520 12.64789 23 ft 2 kts 149°
2026-05-04 20:33 55.62535 12.64777 19 ft 2 kts 166°
2026-05-04 20:34 55.62550 12.64772 21 ft 2 kts 176°
2026-05-04 20:34 55.62557 12.64772 19 ft 0 kts 179°
2026-05-04 20:37 55.62555 12.64772 19 ft 2 kts 179°
2026-05-04 20:37 55.62503 12.64773 19 ft 12 kts 179°
2026-05-04 20:38 55.62413 12.64776 21 ft 13 kts 177°
2026-05-04 20:38 55.62336 12.64739 23 ft 12 kts 233°
2026-05-04 20:38 55.62312 12.64659 20 ft 10 kts 248°
2026-05-04 20:38 55.62294 12.64583 20 ft 0 kts 246°
2026-05-04 20:39 55.62293 12.64580 20 ft 1 kts 246°
2026-05-04 20:39 55.62293 12.64579 20 ft 0 kts 246°
2026-05-04 20:39 55.62279 12.64524 20 ft 11 kts 246°
2026-05-04 20:40 55.62230 12.64401 16 ft 12 kts 204°
2026-05-04 20:40 55.62173 12.64325 15 ft 10 kts 208°
2026-05-04 20:40 55.62119 12.64277 17 ft 7 kts 206°
2026-05-04 20:40 55.62079 12.64243 18 ft 6 kts 203°
2026-05-04 20:41 55.62030 12.64205 18 ft 9 kts 206°
2026-05-04 20:41 55.61966 12.64151 20 ft 11 kts 204°
2026-05-04 20:41 55.61886 12.64085 21 ft 14 kts 203°
2026-05-04 20:41 55.61777 12.64077 19 ft 18 kts 175°
2026-05-04 20:42 55.61647 12.64083 20 ft 18 kts 189°
2026-05-04 20:42 55.61564 12.63971 17 ft 1 kts 221°
2026-05-04 20:42 55.61561 12.63966 17 ft 1 kts 221°
2026-05-04 20:42 55.61549 12.63949 18 ft 3 kts 221°
2026-05-04 20:43 55.61511 12.63888 17 ft 17 kts 221°
2026-05-04 20:43 55.61354 12.63646 18 ft 53 kts 221°
2026-05-04 20:43 55.60885 12.62924 17 ft 124 kts 221°
2026-05-04 20:43 55.60099 12.61731 169 ft 166 kts 223°
2026-05-04 20:44 55.59206 12.60360 896 ft 173 kts 224°
2026-05-04 20:44 55.58297 12.58976 1736 ft 173 kts 225°
2026-05-04 20:44 55.57353 12.57516 2258 ft 193 kts 224°
2026-05-04 20:44 55.56412 12.55825 3025 ft 192 kts 239°
2026-05-04 20:45 55.55956 12.53638 3766 ft 188 kts 253°
2026-05-04 20:45 55.55353 12.51576 4472 ft 190 kts 240°
2026-05-04 20:45 55.54649 12.49646 5218 ft 188 kts 238°
2026-05-04 20:45 55.53913 12.47682 5717 ft 194 kts 239°
2026-05-04 20:46 55.53174 12.45695 6147 ft 202 kts 239°
2026-05-04 20:46 55.52369 12.43495 6353 ft 224 kts 239°
2026-05-04 20:46 55.51490 12.41074 6568 ft 245 kts 239°
2026-05-04 20:46 55.50547 12.38458 7012 ft 258 kts 239°
2026-05-04 20:47 55.49579 12.35761 7818 ft 261 kts 239°
2026-05-04 20:47 55.48625 12.33093 8772 ft 261 kts 240°
2026-05-04 20:47 55.47655 12.30368 9665 ft 264 kts 240°
2026-05-04 20:47 55.46667 12.27587 10394 ft 272 kts 240°
2026-05-04 20:48 55.45617 12.24621 10601 ft 298 kts 240°
2026-05-04 20:48 55.44483 12.21418 10971 ft 315 kts 240°
2026-05-04 20:48 55.43305 12.18098 11685 ft 321 kts 239°
2026-05-04 20:48 55.42117 12.14754 12541 ft 323 kts 239°
2026-05-04 20:49 55.40939 12.11443 13398 ft 325 kts 239°
2026-05-04 20:49 55.39730 12.08047 14198 ft 329 kts 239°
2026-05-04 20:49 55.38508 12.04615 14944 ft 333 kts 239°
2026-05-04 20:49 55.37269 12.01138 15697 ft 338 kts 239°
2026-05-04 20:50 55.36009 11.97608 16465 ft 342 kts 240°
2026-05-04 20:50 55.34730 11.94033 17222 ft 347 kts 240°
2026-05-04 20:50 55.33438 11.90423 17965 ft 351 kts 240°
2026-05-04 20:50 55.32123 11.86756 18646 ft 356 kts 239°
2026-05-04 20:51 55.26528 11.71180 21525 ft 365 kts 239°
2026-05-04 20:51 55.15249 11.40395 26044 ft 384 kts 238°
2026-05-04 20:51 55.03289 11.08670 29778 ft 398 kts 239°
2026-05-04 20:51 54.91259 10.76725 32546 ft 406 kts 238°
2026-05-04 20:52 54.77999 10.43410 34977 ft 412 kts 237°
2026-05-04 20:52 54.65360 10.11285 37219 ft 411 kts 239°
2026-05-04 20:52 54.53182 9.77232 38309 ft 426 kts 239°
2026-05-04 20:52 54.40197 9.41989 38123 ft 443 kts 238°
2026-05-04 20:53 54.26700 9.06861 37912 ft 437 kts 237°
2026-05-04 20:53 54.13529 8.72546 37913 ft 428 kts 238°
2026-05-04 20:53 53.87528 8.06096 37926 ft 411 kts 237°
2026-05-04 20:54 53.62188 7.43091 38069 ft 404 kts 236°
2026-05-04 20:54 53.36209 6.80104 38092 ft 421 kts 235°
2026-05-04 20:55 53.08839 6.15396 37988 ft 428 kts 235°
2026-05-04 20:55 52.81283 5.51843 37957 ft 417 kts 234°
2026-05-04 20:56 52.54090 4.90659 37996 ft 412 kts 233°
2026-05-04 20:56 52.26378 4.29822 38063 ft 423 kts 233°
2026-05-04 20:57 51.97702 3.68359 37969 ft 431 kts 232°
2026-05-04 20:57 51.83254 3.37922 35421 ft 421 kts 232°
2026-05-04 20:57 51.70297 3.08132 31610 ft 398 kts 250°
2026-05-04 20:58 51.70529 2.73842 28639 ft 371 kts 265°
2026-05-04 20:58 51.66234 2.43135 25629 ft 341 kts 257°
2026-05-04 20:58 51.64061 2.13074 22531 ft 335 kts 263°
2026-05-04 20:58 51.61247 1.84228 19659 ft 315 kts 258°
2026-05-04 20:59 51.50731 1.64063 17104 ft 299 kts 214°
2026-05-04 20:59 51.44372 1.44477 14897 ft 304 kts 269°
2026-05-04 20:59 51.44106 1.41159 14488 ft 311 kts 254°
2026-05-04 20:59 51.43330 1.37908 14048 ft 315 kts 236°
2026-05-04 21:00 51.41822 1.35413 13928 ft 311 kts 217°
2026-05-04 21:00 51.40093 1.33314 13721 ft 314 kts 215°
2026-05-04 21:00 51.38345 1.31283 13550 ft 315 kts 214°
2026-05-04 21:00 51.36565 1.29229 13368 ft 315 kts 215°
2026-05-04 21:01 51.34799 1.27182 13196 ft 313 kts 215°
2026-05-04 21:01 51.33040 1.25132 13030 ft 312 kts 216°
2026-05-04 21:01 51.31290 1.23084 12859 ft 310 kts 215°
2026-05-04 21:01 51.27456 1.18582 12501 ft 309 kts 215°
2026-05-04 21:02 51.20535 1.10453 11848 ft 307 kts 216°
2026-05-04 21:02 51.13680 1.02423 11226 ft 305 kts 216°
2026-05-04 21:02 51.06840 0.94444 10604 ft 305 kts 216°
2026-05-04 21:02 51.02632 0.83239 9952 ft 286 kts 248°
2026-05-04 21:03 50.99512 0.72302 9328 ft 262 kts 244°
2026-05-04 21:03 50.96478 0.62251 8830 ft 257 kts 244°
2026-05-04 21:03 50.95726 0.59760 8761 ft 263 kts 244°
2026-05-04 21:03 50.94912 0.57060 8590 ft 277 kts 245°
2026-05-04 21:04 50.94078 0.54297 8437 ft 278 kts 244°
2026-05-04 21:04 50.93238 0.51520 8281 ft 278 kts 244°
2026-05-04 21:04 50.92407 0.48776 8130 ft 275 kts 244°
2026-05-04 21:04 50.91611 0.46048 7976 ft 271 kts 251°
2026-05-04 21:05 50.91454 0.43123 7838 ft 267 kts 279°
2026-05-04 21:05 50.91888 0.40270 7719 ft 266 kts 287°
2026-05-04 21:05 50.92429 0.37487 7570 ft 262 kts 288°
2026-05-04 21:05 50.92958 0.34760 7426 ft 255 kts 288°
2026-05-04 21:06 50.93462 0.32090 7291 ft 248 kts 287°
2026-05-04 21:06 50.93942 0.29499 7162 ft 244 kts 287°
2026-05-04 21:06 50.94414 0.26935 7075 ft 241 kts 287°
2026-05-04 21:06 50.95210 0.24554 6660 ft 248 kts 311°
2026-05-04 21:07 50.96333 0.22459 6247 ft 253 kts 310°
2026-05-04 21:07 50.97456 0.20257 5770 ft 259 kts 309°
2026-05-04 21:07 50.98572 0.18022 5309 ft 265 kts 309°
2026-05-04 21:07 50.99737 0.15668 4826 ft 270 kts 309°
2026-05-04 21:08 51.00890 0.13331 4332 ft 274 kts 310°
2026-05-04 21:08 51.01867 0.10738 4014 ft 275 kts 287°
2026-05-04 21:08 51.02078 0.07788 3941 ft 265 kts 274°
2026-05-04 21:08 51.02151 0.04926 3847 ft 254 kts 274°
2026-05-04 21:09 51.02225 0.02178 3786 ft 244 kts 274°
2026-05-04 21:09 51.02306 -0.00463 3713 ft 235 kts 274°
2026-05-04 21:09 51.02395 -0.03029 3661 ft 232 kts 274°
2026-05-04 21:09 51.02491 -0.05604 3627 ft 234 kts 274°
2026-05-04 21:10 51.02592 -0.08205 3581 ft 237 kts 275°
2026-05-04 21:10 51.02697 -0.10830 3526 ft 240 kts 275°
2026-05-04 21:10 51.02804 -0.13482 3474 ft 241 kts 275°
2026-05-04 21:10 51.02912 -0.16141 3408 ft 242 kts 275°
2026-05-04 21:11 51.03020 -0.18794 3340 ft 239 kts 275°
2026-05-04 21:11 51.03127 -0.21406 3280 ft 235 kts 275°
2026-05-04 21:11 51.03234 -0.23992 3235 ft 236 kts 275°
2026-05-04 21:11 51.03341 -0.26595 3182 ft 237 kts 275°
2026-05-04 21:12 51.03448 -0.29217 3061 ft 238 kts 275°
2026-05-04 21:12 51.03553 -0.31839 3008 ft 238 kts 275°
2026-05-04 21:12 51.03658 -0.34449 2993 ft 235 kts 275°
2026-05-04 21:12 51.03762 -0.37049 2989 ft 228 kts 275°
2026-05-04 21:13 51.03859 -0.39476 2978 ft 219 kts 274°
2026-05-04 21:13 51.03953 -0.41856 2981 ft 214 kts 275°
2026-05-04 21:13 51.04046 -0.44232 2981 ft 209 kts 275°
2026-05-04 21:13 51.04134 -0.46482 2978 ft 198 kts 275°
2026-05-04 21:14 51.04217 -0.48621 3004 ft 197 kts 275°
2026-05-04 21:14 51.04491 -0.50731 2982 ft 195 kts 297°
2026-05-04 21:14 51.05281 -0.52419 2993 ft 189 kts 323°
2026-05-04 21:14 51.06412 -0.53415 2999 ft 185 kts 346°
2026-05-04 21:15 51.07671 -0.53623 2986 ft 180 kts
2026-05-04 21:15 51.08830 -0.53073 2977 ft 170 kts 30°
2026-05-04 21:15 51.09713 -0.51938 2991 ft 160 kts 50°
2026-05-04 21:15 51.10345 -0.50468 3008 ft 162 kts 63°
2026-05-04 21:16 51.10687 -0.48772 3001 ft 160 kts 76°
2026-05-04 21:16 51.10937 -0.47055 2989 ft 156 kts 76°
2026-05-04 21:16 51.11163 -0.45446 2981 ft 145 kts 77°
2026-05-04 21:16 51.11391 -0.43936 2991 ft 136 kts 75°
2026-05-04 21:17 51.11605 -0.42502 2953 ft 131 kts 76°
2026-05-04 21:17 51.11806 -0.41073 2801 ft 133 kts 76°
2026-05-04 21:17 51.12002 -0.39649 2625 ft 130 kts 77°
2026-05-04 21:17 51.12191 -0.38254 2458 ft 128 kts 77°
2026-05-04 21:18 51.12379 -0.36869 2279 ft 128 kts 76°
2026-05-04 21:18 51.12566 -0.35494 2116 ft 125 kts 76°
2026-05-04 21:18 51.12751 -0.34132 1945 ft 126 kts 77°
2026-05-04 21:18 51.12936 -0.32769 1764 ft 127 kts 77°
2026-05-04 21:19 51.13121 -0.31410 1590 ft 125 kts 76°
2026-05-04 21:19 51.13306 -0.30049 1426 ft 127 kts 76°
2026-05-04 21:19 51.13493 -0.28675 1249 ft 127 kts 76°
2026-05-04 21:19 51.13688 -0.27307 1103 ft 126 kts 75°
2026-05-04 21:20 51.13869 -0.25935 939 ft 128 kts 78°
2026-05-04 21:20 51.14039 -0.24540 749 ft 130 kts 76°
2026-05-04 21:20 51.14239 -0.23131 592 ft 131 kts 75°
2026-05-04 21:20 51.14442 -0.21696 385 ft 132 kts 76°
2026-05-04 21:21 51.14638 -0.20284 228 ft 129 kts 75°
2026-05-04 21:21 51.14816 -0.19012 319 ft 117 kts 76°
2026-05-04 21:21 51.15021 -0.17611 940 ft 147 kts 75°
2026-05-04 21:21 51.15303 -0.15850 1479 ft 175 kts 73°
2026-05-04 21:22 51.15591 -0.13880 2090 ft 196 kts 79°
2026-05-04 21:22 51.15594 -0.12398 2257 ft 211 kts 103°
2026-05-04 21:22 51.14720 -0.10487 2724 ft 225 kts 146°
2026-05-04 21:22 51.13152 -0.09805 2984 ft 253 kts 178°
2026-05-04 21:23 51.11367 -0.10557 3004 ft 284 kts 210°
2026-05-04 21:23 51.09995 -0.12809 2987 ft 279 kts 240°
2026-05-04 21:23 51.09216 -0.15500 2937 ft 260 kts 247°
2026-05-04 21:23 51.08544 -0.18091 2971 ft 250 kts 248°
2026-05-04 21:24 51.07881 -0.20640 2987 ft 249 kts 247°
2026-05-04 21:24 51.07202 -0.23187 3001 ft 253 kts 246°
2026-05-04 21:24 51.06504 -0.25754 2996 ft 253 kts 246°
2026-05-04 21:24 51.05800 -0.28299 2995 ft 250 kts 246°
2026-05-04 21:25 51.05109 -0.30780 2985 ft 241 kts 246°
2026-05-04 21:25 51.04431 -0.33202 2989 ft 240 kts 246°
2026-05-04 21:25 51.03821 -0.35663 2982 ft 239 kts 259°
2026-05-04 21:25 51.03795 -0.38257 2997 ft 230 kts 275°
2026-05-04 21:26 51.04101 -0.40666 2981 ft 217 kts 298°
2026-05-04 21:26 51.04941 -0.42616 3004 ft 213 kts 308°
2026-05-04 21:26 51.05812 -0.44517 2991 ft 212 kts 308°
2026-05-04 21:26 51.06675 -0.46414 2999 ft 211 kts 309°
2026-05-04 21:27 51.07702 -0.47956 2975 ft 197 kts 337°
2026-05-04 21:27 51.08932 -0.48721 2989 ft 187 kts 341°
2026-05-04 21:27 51.10139 -0.49474 2988 ft 187 kts 341°
2026-05-04 21:27 51.11352 -0.50242 3003 ft 189 kts 341°
2026-05-04 21:28 51.12573 -0.51029 3008 ft 190 kts 336°
2026-05-04 21:28 51.13590 -0.52380 3011 ft 194 kts 310°
2026-05-04 21:28 51.14282 -0.54227 3002 ft 198 kts 284°
2026-05-04 21:28 51.14197 -0.56384 3017 ft 199 kts 245°
2026-05-04 21:29 51.13301 -0.58003 3014 ft 197 kts 206°
2026-05-04 21:29 51.11993 -0.58387 3011 ft 192 kts 166°
2026-05-04 21:29 51.10872 -0.57406 3017 ft 184 kts 126°
2026-05-04 21:29 51.10335 -0.55606 3020 ft 180 kts 105°
2026-05-04 21:30 51.10038 -0.53667 2995 ft 181 kts 89°
2026-05-04 21:30 51.10319 -0.51745 3014 ft 179 kts 72°
2026-05-04 21:30 51.10571 -0.49791 3005 ft 181 kts 80°
2026-05-04 21:30 51.10823 -0.47816 2993 ft 182 kts 76°
2026-05-04 21:31 51.11360 -0.44035 2994 ft 164 kts 75°
2026-05-04 21:31 51.11622 -0.42322 2934 ft 155 kts 75°
2026-05-04 21:31 51.11858 -0.40687 2744 ft 147 kts 76°
2026-05-04 21:32 51.12071 -0.39142 2562 ft 138 kts 77°
2026-05-04 21:32 51.12262 -0.37742 2409 ft 123 kts 77°
2026-05-04 21:32 51.12442 -0.36410 2226 ft 124 kts 76°
2026-05-04 21:32 51.12626 -0.35064 2049 ft 126 kts 77°
2026-05-04 21:33 51.12811 -0.33697 1880 ft 127 kts 76°
2026-05-04 21:33 51.12995 -0.32340 1715 ft 124 kts 76°
2026-05-04 21:33 51.13179 -0.30994 1537 ft 125 kts 77°
2026-05-04 21:33 51.13363 -0.29640 1372 ft 125 kts 77°
2026-05-04 21:34 51.13550 -0.28285 1188 ft 125 kts 75°
2026-05-04 21:34 51.13746 -0.26934 1012 ft 125 kts 76°
2026-05-04 21:34 51.13933 -0.25572 836 ft 126 kts 77°
2026-05-04 21:34 51.14104 -0.24200 682 ft 126 kts 76°
2026-05-04 21:35 51.14298 -0.22839 482 ft 127 kts 77°
2026-05-04 21:35 51.14483 -0.21491 358 ft 122 kts 77°
2026-05-04 21:35 51.14659 -0.20166 212 ft 118 kts 77°
2026-05-04 21:35 51.14792 -0.19179 207 ft 39 kts 78°
2026-05-04 21:36 51.14853 -0.18757 201 ft 39 kts 74°
2026-05-04 21:36 51.14990 -0.18417 207 ft 31 kts 50°
2026-05-04 21:36 51.15080 -0.18239 204 ft 20 kts 51°
2026-05-04 21:36 51.15134 -0.18098 209 ft 13 kts 53°
2026-05-04 21:37 51.15222 -0.18024 207 ft 18 kts 68°
2026-05-04 21:37 51.15252 -0.17806 206 ft 23 kts 78°
2026-05-04 21:37 51.15290 -0.17539 213 ft 27 kts 77°
2026-05-04 21:37 51.15343 -0.17356 211 ft 12 kts 25°
2026-05-04 21:38 51.15383 -0.17215 203 ft 17 kts 73°
2026-05-04 21:38 51.15418 -0.17090 208 ft 7 kts 47°
2026-05-04 21:38 51.15449 -0.17074 202 ft 3 kts 359°
2026-05-04 21:38 51.15457 -0.17077 202 ft 1 kts 349°
2026-05-04 21:39 51.15463 -0.17079 208 ft 1 kts 348°
2026-05-04 21:39 51.15465 -0.17079 208 ft 0 kts 348°